Regional Weather Roundup
Issued by NWS Charleston, SC

Current Version | Previous Version | Text Only | Print | Product List | Glossary Off
Versions: 1 2 3 4 5 6 7 8 9 10 11 12 13 14 15 16 17 18 19 20 21 22 23 24 25 26 27 28 29 30 31 32 33 34 35 36 37 38 39 40 41 42 43 44 45 46 47 48 49 50
808 ASUS42 KCHS 280412 RWRCHS REGIONAL WEATHER ROUNDUP NATIONAL WEATHER SERVICE CHARLESTON SC 1200 AM EDT FRI JUL 28 2017 NOTE: "FAIR" INDICATES FEW OR NO CLOUDS BELOW 12,000 FEET WITH NO SIGNIFICANT WEATHER AND/OR OBSTRUCTIONS TO VISIBILITY. NOT ALL STATIONS ARE QUALITY CONTROLLED. USE DATA WITH CAUTION... ESPECIALLY DEWPOINT OBSERVATIONS. SCZ027-030-031-034>040-042>050-280500- ...SOUTHEAST SOUTH CAROLINA... CITY SKY/WX TMP DP RH WIND PRES REMARKS N CHARLESTON CLOUDY 78 75 90 S3 29.95F WATERFRONT PRK N/A 81 78 91 S5 29.94F JOHNS ISLAND FAIR 81 77 89 S7 29.95F PINOPOLIS N/A 79 75 89 CALM 29.89F MONCKS CORNER FAIR 75 73 94 CALM 29.95F SUMMERVILLE FAIR 77 73 88 CALM 29.96F BEAUFORT MCAS MOCLDY 80 77 90 CALM 29.95F BEAUFORT ARPT FAIR 79 72 78 S3 29.94F HILTON HEAD IS CLOUDY 81 75 83 VRB6 29.95F WALTERBORO NOT AVBL ALLENDALE NOT AVBL ...SOUTHERN MIDLANDS AND PEE DEE... CITY SKY/WX TMP DP RH WIND PRES REMARKS GEORGETOWN FAIR 73 73 100 CALM 29.97F KINGSTREE FAIR 73 73 100 SE3 29.95F FOG ORANGEBURG CLEAR 76 73 91 S3 29.95F BARNWELL FAIR 79 75 89 CALM 29.96S AIKEN FAIR 77 73 88 SE6 29.98F MANNING FAIR 79 73 83 SW7 29.95F COLUMBIA CLOUDY 81 73 76 S6 29.93F SUMTER CLEAR 78 73 84 S6 29.92F FLORENCE CLEAR 77 75 93 S6 29.95F MYRTLE BEACH NOT AVBL N MYRTLE BEACH PTCLDY 79 75 87 SW9 29.96F $$ GAZ063-065-086>088-099>101-113>116-118-119-134>141-150-280500- ...SOUTHEAST GEORGIA... CITY SKY/WX TMP DP RH WIND PRES REMARKS SAVANNAH ARPT CLOUDY 78 74 87 CALM 29.95F HUNTER AAF CLOUDY 77 75 93 CALM 29.93S FORT STEWART PTCLDY 77 75 93 CALM 29.93F STATESBORO MOCLDY 77 77 100 CALM 29.95F SYLVANIA CLOUDY 76 76 100 CALM 29.96F CLAXTON FAIR 76 75 97 CALM 29.96S ...CSRA...CENTRAL AND FAR SOUTHEAST GEORGIA... CITY SKY/WX TMP DP RH WIND PRES REMARKS THOMSON PTCLDY 77 75 93 SW3 29.99F AUGUSTA-BUSH PTCLDY 79 76 90 SE3 29.93F AUGUSTA-DANIEL PTCLDY 82 72 71 SE5 29.95F SWAINSBORO FAIR 79 77 94 SE3 29.96F VIDALIA MOCLDY 79 75 89 SE3 29.96F EASTMAN FAIR 79 79 100 CALM 29.97F HAZLEHURST FAIR 80 79 97 CALM 29.94F ALMA PTCLDY 77 75 93 CALM 29.95F WAYCROSS PTCLDY 80 80 100 CALM 29.95F JESUP NOT AVBL BAXLEY FAIR 79 79 100 CALM 29.95F BRUNSWICK CLOUDY 77 77 100 CALM 29.95F SAINT SIMONS CLOUDY 79 77 94 CALM 29.94F $$ SCZ027-028-034-036>038-045-046-048>050-GAZ119-141-280500- ...LAKE AND SUPPLEMENTAL COASTAL OBSERVATIONS... STATION/POSITION TIME TEMP WIND PRES WAVE SWELL AIR SEA DIR/SP/G HT/PER HT/PER/DIR (UTC) (F) (DEG/KT/KT) (MB) (FT/S) (FT/S/D) WINYAH BAY 0245 80 240/ 4 1015.0 LAKE MURRAY 0320 85 200/ 6/ 8 1012.9 ACE BASIN NERRS 0245 81 CALM 1015.0 FORT PULASKI 0348 80 84 160/ 2/ 4 1014.3F SAPELO ISLAND 0300 78 CALM 1014.0 $$ ANZ835-935-AMZ111-154-330-350-352-354-370-450-454-472-280500- ...C-MAN AND BUOY OBSERVATIONS... STATION/POSITION TIME TEMP WIND PRES WAVE SWELL AIR SEA DIR/SP/G HT/PER HT/PER/DIR (UTC) (F) (DEG/KT/KT) (MB) (FT/S) (FT/S/D) BUOY 41004 0350 82 81 190/ 8/ 10 1014.0F 2/ 7 2/100/ 7 BUOY 41008 0350 81 81 220/ 10/ 12 1013.4F 2/ 4 2/100/ 9 FOLLY BEACH CMAN 0400 81 180/ 11/ 13 1014.7F CAPERS NEARSHORE 0308 80 84 200/ 12/ 17 1014.4F FRIPP NEARSHORE 0308 81 84 180/ 10/ 16 1014.0S STATION/POSITION TIME TEMP WIND PRES WAVE SWELL AIR SEA DIR/SP/G HT/PER HT/PER/DIR (UTC) (F) (DEG/KT/KT) (MB) (FT/S) (FT/S/D) 5E ST. MARYS GA 0330 79 N/A 2/ 4 FRYING PAN BUOY 0350 82 82 230/ 10/ 12 1014.5S 2/ 8 2/ 90/ 8 BUOY 41025 0350 81 83 190/ 17/ 19 1014.1F 3/ 8 2/ 70/ 8 CAPE LOOKOUT NC 0400 81 180/ 14/ 16 1013.9F BUOY 41002 0250 82 83 240/ 6/ 8 1015.6 3/ 7 3/ 30/ 7 BUOY 41010 0350 84 85 160/ 10/ 12 1015.5F 3/ 8 2/110/ 8 ST AUGUSTINE FL 0400 79 76 200/ 5/ 7 1015.0R $$

USA.gov is the U.S. government's official web portal to all federal, state and local government web resources and services.